Weather History for KPNA - October, 2013

Change the Weather History Date:

Thursday, October 31, 2013

  Actual Average (KBPI) Record (KBPI)
Temperature  
Mean Temperature 32 °F 32 °F  
Max Temperature 41 °F 48 °F 63 °F (2014)
Min Temperature 23 °F 16 °F -10 °F (1991)
Degree Days  
Heating Degree Days 32 33  
Month to date heating degree days 830  
Since 1 July heating degree days 1580  
Cooling Degree Days 0 0  
Month to date cooling degree days 0  
Year to date cooling degree days 35  
Moisture  
Dew Point 28 °F    
Average Humidity 84    
Maximum Humidity 100    
Minimum Humidity 65    
Precipitation  
Precipitation 0.00 in 0.01 in 0.08 in (2003)
Month to date precipitation 0.53  
Year to date precipitation 5.97  
Sea Level Pressure  
Sea Level Pressure 30.01 in    
Wind  
Wind Speed 15 mph (WNW)    
Max Wind Speed 25 mph    
Max Gust Speed 34 mph    
Visibility 10 miles    
Events Snow    
T = Trace of Precipitation, MM = Missing Value Source: NWS Daily Summary

Daily Weather History Graph

Daily Weather History Graph

Search for Another Location

Airport or City:

Trip Planner

Search our weather history database for the weather conditions in past years. The results will help you decide how hot, cold, wet, or windy it might be!

Date:

Astronomy

Oct. 31, 2013 Rise Set
Actual Time 7:52 AM MDT 6:12 PM MDT
Civil Twilight 7:23 AM MDT 6:41 PM MDT
Nautical Twilight 6:49 AM MDT 7:15 PM MDT
Astronomical Twilight 6:16 AM MDT 7:48 PM MDT
Moon 4:41 AM MDT (10/31) 4:35 PM MDT (10/31)
Length of Visible Light 11h 18m
Length of Day
10h 20m
Waning Crescent, 9% of the Moon is Illuminated
Oct 31
Waning Crescent
Nov 3
New
Nov 9
First Quarter
Nov 17
Full
Nov 25
Last Quarter

Hourly Weather History & Observations

Time (MDT) Temp. Windchill Dew Point Humidity Pressure Visibility Wind Dir Wind Speed Gust Speed Precip Events Conditions
12:15 AM 30.2 °F 19.3 °F 26.6 °F 86% 29.97 in 10.0 mi WNW 15.0 mph - N/A   Overcast
12:35 AM 30.2 °F 19.8 °F 26.6 °F 86% 29.97 in 10.0 mi WNW 13.8 mph - N/A   Overcast
12:55 AM 30.2 °F 19.8 °F 24.8 °F 80% 29.97 in 10.0 mi WNW 13.8 mph - N/A   Overcast
1:15 AM 30.2 °F 18.1 °F 26.6 °F 86% 29.97 in 10.0 mi WNW 18.4 mph - N/A   Overcast
1:35 AM 30.2 °F 18.9 °F 24.8 °F 80% 29.98 in 10.0 mi WNW 16.1 mph - N/A   Overcast
1:55 AM 30.2 °F 21.3 °F 26.6 °F 86% 29.98 in 10.0 mi WNW 10.4 mph - N/A   Overcast
2:15 AM 30.2 °F 20.2 °F 24.8 °F 80% 29.97 in 10.0 mi WNW 12.7 mph - N/A   Overcast
2:35 AM 30.2 °F 18.9 °F 24.8 °F 80% 29.97 in 10.0 mi WNW 16.1 mph - N/A   Overcast
2:55 AM 30.2 °F 17.4 °F 26.6 °F 86% 29.97 in 10.0 mi WNW 20.7 mph - N/A   Overcast
3:15 AM 30.2 °F 17.8 °F 26.6 °F 86% 29.97 in 10.0 mi WNW 19.6 mph - N/A   Overcast
3:35 AM 30.2 °F 18.1 °F 26.6 °F 86% 29.97 in 10.0 mi WNW 18.4 mph 24.2 mph N/A   Overcast
3:55 AM 30.2 °F 18.5 °F 26.6 °F 86% 29.97 in 10.0 mi WNW 17.3 mph 25.3 mph N/A   Overcast
4:15 AM 30.2 °F 18.1 °F 26.6 °F 86% 29.96 in 10.0 mi WNW 18.4 mph 25.3 mph N/A   Overcast
4:35 AM 30.2 °F 20.2 °F 26.6 °F 86% 29.97 in 10.0 mi WNW 12.7 mph - N/A   Overcast
4:55 AM 30.2 °F 18.9 °F 26.6 °F 86% 29.97 in 10.0 mi WNW 16.1 mph - N/A   Overcast
5:15 AM 30.2 °F 20.2 °F 26.6 °F 86% 29.97 in 10.0 mi West 12.7 mph 20.7 mph N/A   Overcast
5:35 AM 30.2 °F 20.2 °F 26.6 °F 86% 29.97 in 10.0 mi WNW 12.7 mph - N/A   Overcast
5:55 AM 30.2 °F 17.8 °F 26.6 °F 86% 29.98 in 10.0 mi WNW 19.6 mph - N/A   Overcast
6:15 AM 30.2 °F 19.8 °F 26.6 °F 86% 29.98 in 10.0 mi WNW 13.8 mph - N/A   Overcast
6:35 AM 30.2 °F 20.8 °F 26.6 °F 86% 29.98 in 10.0 mi WNW 11.5 mph - N/A   Overcast
6:55 AM 30.2 °F 19.3 °F 26.6 °F 86% 29.98 in 10.0 mi WNW 15.0 mph 20.7 mph N/A   Overcast
7:15 AM 30.2 °F 19.3 °F 26.6 °F 86% 29.98 in 10.0 mi WNW 15.0 mph 23.0 mph N/A   Mostly Cloudy
7:35 AM 30.2 °F 18.9 °F 26.6 °F 86% 29.98 in 10.0 mi WNW 16.1 mph - N/A   Mostly Cloudy
7:55 AM 30.2 °F 19.8 °F 26.6 °F 86% 30.00 in 10.0 mi WNW 13.8 mph 19.6 mph N/A   Mostly Cloudy
8:15 AM 30.2 °F 21.3 °F 26.6 °F 86% 30.01 in 10.0 mi WNW 10.4 mph - N/A   Overcast
8:35 AM 32.0 °F 20.5 °F 26.6 °F 80% 30.01 in 10.0 mi WNW 18.4 mph 24.2 mph N/A   Overcast
8:55 AM 32.0 °F 21.2 °F 26.6 °F 80% 30.01 in 10.0 mi WNW 16.1 mph - N/A   Overcast
9:15 AM 32.0 °F 20.5 °F 26.6 °F 80% 30.02 in 10.0 mi WNW 18.4 mph 24.2 mph N/A   Overcast
9:35 AM 32.0 °F 19.8 °F 26.6 °F 80% 30.02 in 10.0 mi WNW 20.7 mph 24.2 mph N/A   Scattered Clouds
9:55 AM 32.0 °F 21.6 °F 26.6 °F 80% 30.03 in 10.0 mi WNW 15.0 mph 20.7 mph N/A   Scattered Clouds
10:15 AM 33.8 °F 22.2 °F 28.4 °F 81% 30.03 in 10.0 mi WNW 20.7 mph 25.3 mph N/A   Scattered Clouds
10:35 AM 33.8 °F 22.2 °F 28.4 °F 81% 30.03 in 10.0 mi WNW 20.7 mph 26.5 mph N/A   Clear
10:55 AM 33.8 °F 21.0 °F 28.4 °F 81% 30.03 in 10.0 mi WNW 25.3 mph 29.9 mph N/A   Scattered Clouds
11:15 AM 33.8 °F 21.6 °F 26.6 °F 75% 30.03 in 10.0 mi NW 23.0 mph 32.2 mph N/A   Scattered Clouds
11:35 AM 33.8 °F 22.2 °F 28.4 °F 81% 30.04 in 10.0 mi WNW 20.7 mph 26.5 mph N/A   Mostly Cloudy
11:55 AM 35.6 °F 24.0 °F 28.4 °F 75% 30.03 in 10.0 mi WNW 23.0 mph 31.1 mph N/A   Mostly Cloudy
12:15 PM 35.6 °F 24.2 °F 28.4 °F 75% 30.04 in 10.0 mi WNW 21.9 mph 29.9 mph N/A   Scattered Clouds
12:35 PM 35.6 °F 25.2 °F 28.4 °F 75% 30.04 in 10.0 mi WNW 18.4 mph 25.3 mph N/A   Mostly Cloudy
12:55 PM 37.4 °F 28.2 °F 28.4 °F 70% 30.02 in 10.0 mi WNW 16.1 mph 23.0 mph N/A   Overcast
1:15 PM 35.6 °F 24.8 °F 28.4 °F 75% 30.02 in 10.0 mi WNW 19.6 mph 24.2 mph N/A   Scattered Clouds
1:35 PM 35.6 °F 26.2 °F 28.4 °F 75% 30.03 in 10.0 mi WNW 15.0 mph 21.9 mph N/A   Mostly Cloudy
1:55 PM 35.6 °F 24.8 °F 28.4 °F 75% 30.01 in 10.0 mi WNW 19.6 mph 25.3 mph N/A   Mostly Cloudy
2:15 PM 37.4 °F 28.5 °F 28.4 °F 70% 30.00 in 10.0 mi WNW 15.0 mph 23.0 mph N/A   Mostly Cloudy
2:35 PM 41.0 °F 32.2 °F 30.2 °F 65% 30.00 in 10.0 mi WNW 18.4 mph - N/A   Overcast
2:55 PM 41.0 °F 31.9 °F 30.2 °F 65% 30.00 in 10.0 mi NW 19.6 mph 24.2 mph N/A   Overcast
3:15 PM 41.0 °F 33.1 °F 30.2 °F 65% 30.00 in 10.0 mi WNW 15.0 mph - N/A   Overcast
3:35 PM 37.4 °F 26.6 °F 30.2 °F 75% 30.01 in 10.0 mi NW 21.9 mph 26.5 mph N/A   Overcast
3:55 PM 37.4 °F 25.9 °F 30.2 °F 75% 30.01 in 10.0 mi WNW 25.3 mph 34.5 mph N/A   Mostly Cloudy
4:15 PM 35.6 °F 25.2 °F 28.4 °F 75% 30.01 in 10.0 mi WNW 18.4 mph 28.8 mph N/A   Scattered Clouds
4:35 PM 33.8 °F 23.9 °F 28.4 °F 81% 30.02 in 10.0 mi NW 15.0 mph 19.6 mph N/A   Scattered Clouds
4:55 PM 35.6 °F 25.9 °F 28.4 °F 75% 30.01 in 10.0 mi NNW 16.1 mph 20.7 mph N/A   Scattered Clouds
5:15 PM 35.6 °F 27.1 °F 28.4 °F 75% 30.01 in 10.0 mi NNW 12.7 mph - N/A   Mostly Cloudy
5:35 PM 33.8 °F 25.3 °F 26.6 °F 75% 30.01 in 10.0 mi NNW 11.5 mph 17.3 mph N/A   Overcast
5:55 PM 32.0 °F 24.2 °F 26.6 °F 80% 30.01 in 10.0 mi NW 9.2 mph - N/A   Scattered Clouds
6:15 PM 32.0 °F 23.6 °F 28.4 °F 87% 30.01 in 10.0 mi NW 10.4 mph - N/A   Mostly Cloudy
6:35 PM 32.0 °F 22.5 °F 28.4 °F 87% 30.02 in 10.0 mi NW 12.7 mph - N/A   Overcast
6:55 PM 32.0 °F 24.8 °F 30.2 °F 93% 30.02 in 10.0 mi NW 8.1 mph - N/A   Overcast
7:15 PM 32.0 °F 24.8 °F 30.2 °F 93% 30.03 in 10.0 mi WNW 8.1 mph - N/A   Overcast
7:35 PM 32.0 °F 25.6 °F 30.2 °F 93% 30.03 in 7.0 mi NW 6.9 mph - N/A Snow Light Snow
7:55 PM 32.0 °F 28.7 °F 30.2 °F 93% 30.04 in 7.0 mi WNW 3.5 mph - N/A Snow Light Snow
8:15 PM 32.0 °F 27.5 °F 30.2 °F 93% 30.03 in 5.0 mi West 4.6 mph - N/A Snow Light Snow
8:35 PM 32.0 °F 27.5 °F 30.2 °F 93% 30.04 in 3.0 mi West 4.6 mph - N/A Snow Light Snow
8:55 PM 30.2 °F 26.7 °F 30.2 °F 100% 30.04 in 10.0 mi WNW 3.5 mph - N/A   Overcast
9:15 PM 30.2 °F - 30.2 °F 100% 30.04 in 5.0 mi Calm Calm - N/A Snow Light Snow
9:35 PM 30.2 °F - 30.2 °F 100% 30.05 in 10.0 mi Calm Calm - N/A   Overcast
9:55 PM 30.2 °F - 30.2 °F 100% 30.05 in 10.0 mi Calm Calm - N/A   Mostly Cloudy
10:35 PM 28.4 °F 24.6 °F 28.4 °F 100% 30.06 in 7.0 mi West 3.5 mph - N/A   Clear
10:55 PM 26.6 °F 21.2 °F 26.6 °F 100% 30.07 in 0.8 mi West 4.6 mph - N/A   Mist
11:15 PM 24.8 °F 19.1 °F 24.8 °F 100% 30.07 in 10.0 mi WSW 4.6 mph - N/A   Scattered Clouds
11:35 PM 24.8 °F - 24.8 °F 100% 30.07 in 10.0 mi Calm Calm - N/A   Clear
11:55 PM 23.0 °F - 23.0 °F 100% 30.07 in 10.0 mi Calm Calm - N/A   Clear